Location: Walnut Point State Park
(39.6958°N, 88.0345°W)
Time: 12:22:49
(UTC-05:00)

Amateur Radio Satellites - All Passes

Search period start: 23 October 2017 11:52
Search period end: 24 October 2017 11:52
Location: Walnut Point State Park, 39.6958°N, 88.0345°W

Satellite Date Start Highest point End Downlink Frequencies (MHz)
Time Altitude Azimuth
BUGSAT 1 23 Oct 11:55:35 11:57:55 15° 65° (ENE) 12:00:17 437.445
DUCHIFAT 1 23 Oct 11:59:18 12:03:29 63° 75° (ENE) 12:07:42 145.980
Oscar 19 23 Oct 12:01:36 12:03:07 11° 59° (ENE) 12:04:39 437.125/150
LO-87 23 Oct 12:10:06 12:13:45 87° 278° (W) 12:17:20 145.935 - 145.965
ISS 23 Oct 12:13:01 12:13:43 10° 356° (N) 12:14:25 437.550
AIST 2D 23 Oct 12:13:03 12:15:34 18° 266° (W) 12:18:05 435.315
RS-15 23 Oct 12:13:32 12:20:24 18° 263° (W) 12:27:08 29.354- 29.394
M-CUBED/EXP-1 PRIME 23 Oct 12:27:29 12:28:29 11° 61° (ENE) 12:29:28 437.505
Gurwin Techsat 1B 23 Oct 12:56:59 13:01:22 27° 66° (ENE) 13:05:47 435.225
BEESAT 2 23 Oct 13:00:08 13:03:54 38° 307° (NW) 13:07:44 435.950
EO-79 23 Oct 13:01:31 13:04:39 20° 266° (W) 13:07:49 145.935-145.965
AO-85 23 Oct 13:02:35 13:06:24 59° 304° (NW) 13:10:20 145.980
VELOX 1 23 Oct 13:03:29 13:07:32 33° 98° (E) 13:11:34 145.980
POLYITAN 1 23 Oct 13:07:35 13:10:27 17° 267° (W) 13:13:19 437.675
nSIGHT-1 23 Oct 13:08:10 13:09:10 11° 9° (N) 13:10:11 .
BEESAT 3 23 Oct 13:11:22 13:13:02 12° 318° (NW) 13:14:43 437.485
SPROUT 23 Oct 13:27:59 13:32:18 82° 284° (WNW) 13:36:34 437.525
BUGSAT 1 23 Oct 13:28:48 13:32:50 47° 260° (W) 13:36:57 437.445
NANOSAT C BR1 23 Oct 13:29:24 13:30:46 11° 269° (W) 13:32:08 145.865
ESTCUBE 1 23 Oct 13:29:50 13:33:12 21° 293° (WNW) 13:36:34 437.505/2401.250
50 SAT 23 Oct 13:35:58 13:38:16 17° 95° (E) 13:40:33 437.505
Oscar 19 23 Oct 13:36:29 13:41:39 89° 58° (ENE) 13:46:50 437.125/150
DUCHIFAT 1 23 Oct 13:39:03 13:39:32 10° 270° (W) 13:40:02 145.980
ISS 23 Oct 13:49:23 13:51:19 15° 17° (NNE) 13:53:14 437.550
DX 1 23 Oct 13:58:44 14:02:39 32° 97° (E) 14:06:34 434.975-435.025
M-CUBED/EXP-1 PRIME 23 Oct 13:59:28 14:02:36 37° 255° (WSW) 14:05:40 437.505
AO-7 23 Oct 14:00:01 14:06:43 28° 57° (ENE) 14:13:25 .
UKube-1 23 Oct 14:15:27 14:19:17 30° 97° (E) 14:23:05 .
ITAMSAT 1 23 Oct 14:19:29 14:22:19 15° 61° (ENE) 14:25:09 435.822/435.867
SO-50 23 Oct 14:32:20 14:36:37 37° 51° (NE) 14:40:57 436.795
Gurwin Techsat 1B 23 Oct 14:36:14 14:41:08 37° 262° (W) 14:46:03 435.225
VELOX 1 23 Oct 14:40:21 14:43:45 22° 293° (WNW) 14:47:08 145.980
nSIGHT-1 23 Oct 14:43:23 14:46:15 29° 29° (NNE) 14:49:07 .
50 SAT 23 Oct 15:07:55 15:10:29 21° 290° (WNW) 15:13:02 437.505
ITUPSAT 1 23 Oct 15:09:33 15:12:17 15° 92° (E) 15:15:01 437.325
PCSat 23 Oct 15:21:47 15:24:32 14° 41° (NE) 15:27:16 145.827
BEESAT 23 Oct 15:21:56 15:25:32 21° 94° (E) 15:29:06 436.000
ISS 23 Oct 15:25:05 15:28:20 59° 36° (NE) 15:31:33 437.550
DX 1 23 Oct 15:35:14 15:38:38 22° 293° (WNW) 15:42:02 434.975-435.025
MOZHAYETS 4 23 Oct 15:42:37 15:46:56 40° 98° (E) 15:51:12
AO-7 23 Oct 15:50:37 15:58:51 67° 255° (WSW) 16:07:07 .
UKube-1 23 Oct 15:51:43 15:55:07 23° 293° (WNW) 15:58:30 .
ITAMSAT 1 23 Oct 15:55:58 16:01:09 71° 257° (WSW) 16:06:22 435.822/435.867
CUBESAT XI-V 23 Oct 16:04:35 16:07:09 15° 91° (E) 16:09:44 437.345
SO-50 23 Oct 16:13:08 16:16:54 25° 248° (WSW) 16:20:42 436.795
nSIGHT-1 23 Oct 16:19:39 16:22:30 30° 225° (SW) 16:25:21 .
ITUPSAT 1 23 Oct 16:45:45 16:50:26 54° 288° (WNW) 16:55:04 437.325
KKS-1 23 Oct 16:47:15 16:47:23 10° 90° (E) 16:47:30 437.445
DOVE 4 23 Oct 16:54:00 16:58:03 48° 73° (ENE) 17:02:19 437.250
CUTE-I 23 Oct 16:54:15 16:56:52 14° 60° (ENE) 16:59:30 437.470
LilacSat-2 23 Oct 16:55:40 16:56:17 10° 65° (ENE) 16:56:55 437.200
XW-2D 23 Oct 16:57:54 16:58:37 10° 65° (ENE) 16:59:21 145.860 - 145.880
BEESAT 23 Oct 16:58:58 17:03:24 39° 290° (WNW) 17:07:48 436.000
ISS 23 Oct 17:02:41 17:04:26 14° 231° (SW) 17:06:12 437.550
PCSat 23 Oct 17:03:22 17:08:49 79° 61° (ENE) 17:14:14 145.827
XW-2B 23 Oct 17:10:02 17:12:06 14° 67° (ENE) 17:14:11 145.730 - 145.750
MOZHAYETS 4 23 Oct 17:20:31 17:23:46 19° 294° (WNW) 17:27:01
XW-2C 23 Oct 17:32:12 17:35:25 26° 71° (ENE) 17:38:37 145.795 - 145.815
CUBESAT XI-V 23 Oct 17:40:20 17:44:48 51° 287° (WNW) 17:49:15 437.345
HO-68 23 Oct 17:43:45 17:49:08 24° 58° (ENE) 17:54:31 435.675
AO-7 23 Oct 17:51:40 17:53:00 10° 273° (W) 17:54:20 .
KAITUO 1B 23 Oct 18:05:04 18:08:40 48° 74° (ENE) 18:12:16 145.475/437.950
CUTE 1.7 + AOD 2 23 Oct 18:07:49 18:10:25 16° 66° (ENE) 18:13:01 437.475
CUBEBUG 2 23 Oct 18:11:12 18:13:03 12° 62° (ENE) 18:14:55 437.445
NUDT-PHONESAT 23 Oct 18:12:58 18:16:37 60° 75° (ENE) 18:20:16 437.300
XW-2F 23 Oct 18:13:06 18:16:52 84° 74° (ENE) 18:20:39 145.980 - 146.000
KKS-1 23 Oct 18:19:54 18:24:22 71° 285° (WNW) 18:28:49 437.445
LilacSat-2 23 Oct 18:26:18 18:30:03 55° 260° (W) 18:33:48 437.200
XW-2D 23 Oct 18:28:36 18:32:19 53° 260° (W) 18:36:01 145.860 - 145.880
CUTE-I 23 Oct 18:30:53 18:36:12 79° 257° (WSW) 18:41:34 437.470
DOVE 4 23 Oct 18:34:05 18:36:06 13° 270° (W) 18:38:10 437.250
UWE-3 23 Oct 18:40:48 18:43:15 14° 64° (ENE) 18:45:43 435.000/436.395/437.385
STARS 23 Oct 18:42:05 18:46:33 81° 102° (ESE) 18:50:59 437.465
XW-2B 23 Oct 18:42:24 18:45:56 37° 262° (W) 18:49:29 145.730 - 145.750
PCSat 23 Oct 18:49:06 18:51:28 13° 257° (WSW) 18:53:49 145.827
XW-2A 23 Oct 18:50:42 18:52:23 13° 67° (ENE) 18:54:04 145.665 - 145.685
YUBILEINY 23 Oct 19:05:23 19:12:04 23° 66° (ENE) 19:18:42 435.215
XW-2C 23 Oct 19:06:48 19:09:34 19° 266° (W) 19:12:20 145.795 - 145.815
AO-73 23 Oct 19:21:01 19:24:01 18° 66° (ENE) 19:27:01 145.935
HO-68 23 Oct 19:29:03 19:36:11 69° 256° (WSW) 19:43:23 435.675
SEEDS 23 Oct 19:41:24 19:45:33 72° 258° (WSW) 19:49:44 437.485
CUTE 1.7 + AOD 2 23 Oct 19:41:53 19:45:53 42° 262° (W) 19:49:54 437.475
BEESAT 2 23 Oct 19:42:27 19:43:46 11° 41° (NE) 19:45:04 435.950
ZACube-1 23 Oct 19:44:06 19:48:13 34° 71° (ENE) 19:52:20 437.345
CUBEBUG 2 23 Oct 19:44:18 19:48:59 75° 259° (WSW) 19:53:45 437.445
BEESAT 3 23 Oct 19:48:32 19:52:10 33° 52° (NE) 19:55:43 437.485
AAUSAT CUBESAT 2 23 Oct 19:53:51 19:57:54 66° 76° (ENE) 20:01:59 437.432
AO-85 23 Oct 19:54:49 19:56:57 13° 42° (NE) 19:59:08 145.980
STRAND 1 23 Oct 20:00:08 20:05:06 47° 99° (E) 20:10:02 437.568
O/OREOS (USA 219) 23 Oct 20:12:29 20:17:02 81° 111° (ESE) 20:21:39 437.305
Oscar 11 23 Oct 20:14:13 20:18:17 41° 72° (ENE) 20:22:22 .
UWE-3 23 Oct 20:14:33 20:19:09 61° 260° (W) 20:23:48 435.000/436.395/437.385
XW-2A 23 Oct 20:21:42 20:24:47 31° 262° (W) 20:27:52 145.665 - 145.685
STARS 23 Oct 20:22:10 20:22:11 10° 299° (WNW) 20:22:13 437.465
FO-29 23 Oct 20:47:06 20:53:23 31° 95° (E) 21:00:03 435.910
DELFI C3 23 Oct 20:47:45 20:50:32 19° 68° (ENE) 20:53:20 145.870
Max Valier Satellite 23 Oct 20:54:28 20:56:43 16° 68° (ENE) 20:58:59 145.860
AO-73 23 Oct 20:55:29 20:59:53 45° 262° (W) 21:04:15 145.935
YUBILEINY 23 Oct 21:00:57 21:09:44 75° 266° (W) 21:18:31 435.215
BEESAT 2 23 Oct 21:18:02 21:22:05 88° 238° (WSW) 21:26:04 435.950
ZACube-1 23 Oct 21:20:55 21:24:31 22° 266° (W) 21:28:06 437.345
BEESAT 3 23 Oct 21:26:36 21:29:28 19° 249° (WSW) 21:32:17 437.485
UNISAT 6 23 Oct 21:28:07 21:29:17 11° 89° (E) 21:30:27 437.425
AO-85 23 Oct 21:33:20 21:37:57 85° 57° (ENE) 21:42:56 145.980
STRAND 1 23 Oct 21:40:07 21:43:55 21° 296° (WNW) 21:47:43 437.568
TIGRISAT 23 Oct 21:40:41 21:43:07 14° 91° (E) 21:45:30 435.000
Oscar 11 23 Oct 21:51:52 21:54:34 16° 268° (W) 21:57:17 .
O/OREOS (USA 219) 23 Oct 21:55:29 21:57:03 12° 308° (NW) 21:58:38 437.305
EO-88 23 Oct 22:07:44 22:11:23 85° 261° (W) 22:15:02 145.990 - 145.960
RS-15 23 Oct 22:13:09 22:19:50 17° 96° (E) 22:26:31 29.354- 29.394
DELFI C3 23 Oct 22:21:40 22:25:05 29° 264° (W) 22:28:31 145.870
Max Valier Satellite 23 Oct 22:26:52 22:30:15 33° 263° (W) 22:33:39 145.860
FO-29 23 Oct 22:31:40 22:38:30 53° 289° (WNW) 22:45:55 435.910
LO-87 23 Oct 22:45:05 22:48:16 30° 72° (ENE) 22:51:28 145.935 - 145.965
ESTCUBE 1 23 Oct 22:51:14 22:55:06 29° 69° (ENE) 22:58:58 437.505/2401.250
PRISM 23 Oct 22:55:05 22:59:00 40° 99° (E) 23:02:54 437.425
YUBILEINY 23 Oct 23:01:27 23:04:53 13° 285° (WNW) 23:08:21 435.215
UNISAT 6 23 Oct 23:01:54 23:06:27 66° 286° (WNW) 23:10:52 437.425
TIGRISAT 23 Oct 23:15:41 23:20:07 51° 287° (WNW) 23:24:26 435.000
AO-85 23 Oct 23:16:45 23:17:49 11° 252° (WSW) 23:18:55 145.980
AIST 2D 23 Oct 23:37:40 23:40:45 29° 97° (E) 23:43:49 435.315
QB50P2 23 Oct 23:38:15 23:40:07 13° 91° (E) 23:41:59 145.880/145.840
DUCHIFAT 1 23 Oct 23:46:56 23:47:35 10° 90° (E) 23:48:13 145.980
VELOX 1 23 Oct 23:59:58 00:03:39 27° 69° (ENE) 00:07:21 145.980
RS-15 24 Oct 00:17:57 00:30:08 75° 116° (ESE) 00:42:23 29.354- 29.394
LO-87 24 Oct 00:19:35 00:21:43 15° 267° (W) 00:23:53 145.935 - 145.965
SPROUT 24 Oct 00:19:52 00:24:06 66° 74° (ENE) 00:28:22 437.525
ESTCUBE 1 24 Oct 00:28:12 00:31:51 25° 265° (W) 00:35:33 437.505/2401.250
PRISM 24 Oct 00:31:20 00:33:56 16° 294° (WNW) 00:36:32 437.425
EO-79 24 Oct 00:45:26 00:49:42 69° 102° (ESE) 00:53:54 145.935-145.965
POLYITAN 1 24 Oct 00:51:19 00:55:36 81° 102° (ESE) 00:59:49 437.675
DX 1 24 Oct 00:53:34 00:57:07 25° 68° (ENE) 01:00:41 434.975-435.025
UKube-1 24 Oct 01:09:14 01:12:39 24° 68° (ENE) 01:16:05 .
NANOSAT C BR1 24 Oct 01:10:59 01:15:12 67° 285° (WNW) 01:19:23 145.865
BUGSAT 1 24 Oct 01:11:35 01:15:03 25° 95° (E) 01:18:29 437.445
AIST 2D 24 Oct 01:11:42 01:13:39 14° 292° (WNW) 01:15:36 435.315
QB50P2 24 Oct 01:12:03 01:16:11 51° 287° (WNW) 01:20:17 145.880/145.840
Gurwin Techsat 1B 24 Oct 01:16:59 01:17:25 10° 88° (E) 01:17:50 435.225
DUCHIFAT 1 24 Oct 01:19:26 01:23:37 61° 285° (WNW) 01:27:44 145.980
50 SAT 24 Oct 01:34:25 01:37:40 85° 263° (W) 01:40:56 437.505
VELOX 1 24 Oct 01:36:22 01:40:01 26° 264° (W) 01:43:41 145.980
M-CUBED/EXP-1 PRIME 24 Oct 01:39:37 01:40:17 10° 98° (E) 01:40:57 437.505
Oscar 19 24 Oct 01:49:10 01:53:46 33° 97° (E) 01:58:20 437.125/150
NO-84 24 Oct 01:50:51 01:55:03 58° 132° (SE) 01:59:17 435.350 FM
ITUPSAT 1 24 Oct 02:15:30 02:18:38 18° 64° (ENE) 02:21:48 437.325
EO-79 24 Oct 02:23:56 02:24:50 11° 298° (WNW) 02:25:43 145.935-145.965
BEESAT 24 Oct 02:27:30 02:31:14 23° 66° (ENE) 02:35:00 436.000
DX 1 24 Oct 02:29:31 02:33:11 27° 264° (W) 02:36:53 434.975-435.025
RS-15 24 Oct 02:32:29 02:43:44 39° 321° (NW) 02:54:58 29.354- 29.394
MOZHAYETS 4 24 Oct 02:43:27 02:47:40 35° 70° (ENE) 02:51:52
UKube-1 24 Oct 02:44:48 02:48:31 29° 263° (W) 02:52:17 .
BUGSAT 1 24 Oct 02:46:50 02:50:19 26° 291° (WNW) 02:53:45 437.445
Gurwin Techsat 1B 24 Oct 02:52:39 02:58:01 89° 282° (WNW) 03:03:20 435.225
CUBESAT XI-V 24 Oct 03:07:37 03:10:02 14° 64° (ENE) 03:12:27 437.345
M-CUBED/EXP-1 PRIME 24 Oct 03:11:15 03:14:51 53° 290° (WNW) 03:18:43 437.505
Oscar 19 24 Oct 03:28:37 03:32:58 29° 293° (WNW) 03:37:17 437.125/150
NO-84 24 Oct 03:29:07 03:32:44 25° 330° (NNW) 03:36:18 435.350 FM
ITUPSAT 1 24 Oct 03:51:22 03:56:02 51° 260° (W) 04:00:44 437.325
AO-7 24 Oct 03:53:09 04:01:01 44° 100° (E) 04:08:51 .
BEESAT 24 Oct 04:04:23 04:08:46 36° 262° (W) 04:13:13 436.000
ITAMSAT 1 24 Oct 04:09:42 04:14:42 43° 99° (E) 04:19:39 435.822/435.867
MOZHAYETS 4 24 Oct 04:21:18 04:24:52 22° 266° (W) 04:28:26
Gurwin Techsat 1B 24 Oct 04:35:18 04:37:08 12° 301° (WNW) 04:38:58 435.225
CUBESAT XI-V 24 Oct 04:42:20 04:46:53 58° 260° (W) 04:51:27 437.345
O/OREOS (USA 219) 24 Oct 04:45:32 04:48:08 15° 54° (NE) 04:50:42 437.305
SO-50 24 Oct 04:48:13 04:50:11 13° 108° (ESE) 04:52:09 436.795
RS-15 24 Oct 04:52:44 05:01:11 20° 354° (N) 05:09:28 29.354- 29.394
DOVE 4 24 Oct 04:53:40 04:57:03 17° 92° (E) 05:00:30 437.250
NO-84 24 Oct 05:10:27 05:11:22 11° 350° (N) 05:12:18 435.350 FM
KKS-1 24 Oct 05:16:39 05:21:04 86° 257° (WSW) 05:25:33 437.445
STARS 24 Oct 05:37:24 05:41:45 63° 74° (ENE) 05:46:07 437.465
AO-7 24 Oct 05:46:04 05:53:40 42° 298° (WNW) 06:01:16 .
ITAMSAT 1 24 Oct 05:49:48 05:53:51 23° 295° (WNW) 05:57:55 435.822/435.867
LilacSat-2 24 Oct 06:01:14 06:03:31 15° 93° (E) 06:05:47 437.200
XW-2D 24 Oct 06:02:47 06:05:02 15° 93° (E) 06:07:16 145.860 - 145.880
PCSat 24 Oct 06:06:07 06:06:43 10° 101° (E) 06:07:19 145.827
XW-2B 24 Oct 06:15:51 06:18:45 21° 95° (E) 06:21:38 145.730 - 145.750
O/OREOS (USA 219) 24 Oct 06:23:25 06:27:58 61° 252° (WSW) 06:32:27 437.305
SO-50 24 Oct 06:25:38 06:30:04 64° 304° (NW) 06:34:33 436.795
DOVE 4 24 Oct 06:29:59 06:34:58 55° 286° (WNW) 06:40:05 437.250
XW-2C 24 Oct 06:38:49 06:42:24 42° 99° (E) 06:45:57 145.795 - 145.815
CUTE-I 24 Oct 06:48:48 06:53:57 45° 99° (E) 06:59:04 437.470
NO-84 24 Oct 06:49:20 06:50:26 11° 11° (NNE) 06:51:31 435.350 FM
HO-68 24 Oct 06:58:30 07:04:11 25° 94° (E) 07:09:49 435.675
RS-15 24 Oct 07:09:16 07:19:25 29° 30° (NNE) 07:29:05 29.354- 29.394
KAITUO 1B 24 Oct 07:10:23 07:14:05 81° 102° (ESE) 07:17:47 145.475/437.950
STRAND 1 24 Oct 07:14:59 07:20:02 61° 73° (ENE) 07:25:08 437.568
STARS 24 Oct 07:17:16 07:18:28 11° 269° (W) 07:19:42 437.465
NUDT-PHONESAT 24 Oct 07:17:21 07:21:00 85° 283° (WNW) 07:24:39 437.300
XW-2F 24 Oct 07:19:45 07:23:24 57° 285° (WNW) 07:27:02 145.980 - 146.000
nSIGHT-1 24 Oct 07:22:36 07:23:37 11° 129° (SE) 07:24:40 .
SEEDS 24 Oct 07:26:35 07:29:37 19° 94° (E) 07:32:38 437.485
CUTE 1.7 + AOD 2 24 Oct 07:27:20 07:31:09 32° 97° (E) 07:34:56 437.475
LilacSat-2 24 Oct 07:34:29 07:37:52 32° 288° (WNW) 07:41:14 437.200
XW-2D 24 Oct 07:35:56 07:39:17 32° 288° (WNW) 07:42:37 145.860 - 145.880
CUBEBUG 2 24 Oct 07:36:40 07:40:27 25° 94° (E) 07:44:06 437.445
AAUSAT CUBESAT 2 24 Oct 07:39:01 07:40:03 11° 90° (E) 07:41:04 437.432
PCSat 24 Oct 07:43:49 07:49:13 87° 119° (ESE) 07:54:41 145.827
XW-2A 24 Oct 07:44:47 07:46:36 14° 93° (E) 07:48:24 145.665 - 145.685
XW-2B 24 Oct 07:49:50 07:52:50 23° 290° (WNW) 07:55:50 145.730 - 145.750
ISS 24 Oct 08:04:35 08:07:23 27° 134° (SE) 08:10:11 437.550
UWE-3 24 Oct 08:05:30 08:09:21 28° 95° (E) 08:13:05 435.000/436.395/437.385
YUBILEINY 24 Oct 08:06:12 08:12:59 26° 82° (E) 08:19:46 435.215
SO-50 24 Oct 08:11:12 08:11:26 10° 324° (NW) 08:11:41 436.795
XW-2C 24 Oct 08:14:33 08:16:10 12° 294° (WNW) 08:17:47 145.795 - 145.815
NO-84 24 Oct 08:25:28 08:28:59 29° 32° (NNE) 08:32:16 435.350 FM
UNISAT 6 24 Oct 08:27:02 08:27:42 10° 61° (ENE) 08:28:22 437.425
CUTE-I 24 Oct 08:29:30 08:33:41 24° 295° (WNW) 08:37:51 437.470
TIGRISAT 24 Oct 08:39:00 08:41:08 13° 63° (ENE) 08:43:15 435.000
FO-29 24 Oct 08:43:40 08:48:52 66° 73° (ENE) 08:54:35 435.910
AO-73 24 Oct 08:44:23 08:48:19 34° 97° (E) 08:52:10 145.935
HO-68 24 Oct 08:45:14 08:52:18 61° 291° (WNW) 08:59:21 435.675
nSIGHT-1 24 Oct 08:56:18 08:59:29 70° 324° (NW) 09:02:40 .
STRAND 1 24 Oct 08:56:44 08:59:36 15° 269° (W) 09:02:30 437.568
SEEDS 24 Oct 09:01:37 09:05:20 32° 289° (WNW) 09:09:03 437.485
CUTE 1.7 + AOD 2 24 Oct 09:03:41 09:06:44 20° 292° (WNW) 09:09:48 437.475
ZACube-1 24 Oct 09:08:55 09:13:16 78° 102° (ESE) 09:17:29 437.345
AAUSAT CUBESAT 2 24 Oct 09:11:45 09:15:49 56° 285° (WNW) 09:19:52 437.432
CUBEBUG 2 24 Oct 09:13:03 09:17:01 29° 291° (WNW) 09:20:51 437.445
SRMSAT 24 Oct 09:16:29 09:16:51 10° 180° (S) 09:17:13 437.500
XW-2A 24 Oct 09:16:30 09:19:20 26° 289° (WNW) 09:22:11 145.665 - 145.685
RS-15 24 Oct 09:22:03 09:34:03 81° 58° (ENE) 09:45:20 29.354- 29.394
PCSat 24 Oct 09:30:03 09:33:20 16° 316° (NW) 09:36:39 145.827
Oscar 11 24 Oct 09:37:46 09:42:05 83° 283° (WNW) 09:46:22 .
ISS 24 Oct 09:40:47 09:43:46 32° 330° (NNW) 09:46:46 437.550
UWE-3 24 Oct 09:42:04 09:45:40 24° 292° (WNW) 09:49:10 435.000/436.395/437.385
PRISM 24 Oct 09:43:41 09:47:01 25° 69° (ENE) 09:50:22 437.425
Max Valier Satellite 24 Oct 09:57:37 10:00:27 21° 95° (E) 10:03:17 145.860
DELFI C3 24 Oct 09:58:40 10:02:17 33° 97° (E) 10:05:53 145.870
UNISAT 6 24 Oct 09:58:59 10:03:39 87° 261° (W) 10:08:23 437.425
YUBILEINY 24 Oct 10:00:27 10:09:02 63° 281° (W) 10:17:43 435.215
NO-84 24 Oct 10:02:54 10:06:24 34° 232° (SW) 10:09:37 435.350 FM
TIGRISAT 24 Oct 10:12:33 10:17:12 68° 260° (W) 10:21:54 435.000
AIST 2D 24 Oct 10:13:22 10:13:58 10° 66° (ENE) 10:14:34 435.315
AO-73 24 Oct 10:21:14 10:24:17 19° 294° (WNW) 10:27:17 145.935
FO-29 24 Oct 10:31:59 10:34:41 14° 272° (W) 10:37:30 435.910
nSIGHT-1 24 Oct 10:34:16 10:36:14 15° 342° (NNW) 10:38:11 .
HO-68 24 Oct 10:36:29 10:38:34 11° 310° (NW) 10:40:39 435.675
BEESAT 2 24 Oct 11:09:03 11:11:53 19° 111° (ESE) 11:14:44 435.950
EO-88 24 Oct 11:10:29 11:14:03 55° 285° (WNW) 11:17:35 145.990 - 145.960
BEESAT 3 24 Oct 11:13:40 11:17:38 78° 121° (ESE) 11:21:41 437.485
PRISM 24 Oct 11:18:56 11:22:12 23° 264° (W) 11:25:30 437.425
ISS 24 Oct 11:19:44 11:21:01 12° 350° (N) 11:22:19 437.550
Max Valier Satellite 24 Oct 11:31:18 11:34:11 22° 290° (WNW) 11:37:03 145.860
DELFI C3 24 Oct 11:34:05 11:36:45 18° 293° (WNW) 11:39:26 145.870
EO-79 24 Oct 11:36:35 11:40:38 44° 73° (ENE) 11:44:43 145.935-145.965
POLYITAN 1 24 Oct 11:42:31 11:46:40 52° 74° (ENE) 11:50:52 437.675
AIST 2D 24 Oct 11:43:22 11:46:43 44° 261° (W) 11:50:05 435.315
LO-87 24 Oct 11:45:25 11:48:53 41° 99° (E) 11:52:18 145.935 - 145.965
